Preview of NWS' New Version of Forecast
This preview is not operational and should not be used for support decisions.

Regional Weather Roundup (RWR)

Issued by Baltimore/Washington (LWX)

                            
620 
ASUS41 KLWX 212311
RWRLWX

REGIONAL WEATHER ROUNDUP
NATIONAL WEATHER SERVICE BALTIMORE MD/WASHINGTON DC
700 PM EDT THU JUN 21 2018

Note: "FAIR" indicates few or no clouds below 12,000 feet
with no significant weather and/or obstructions to visibility.
 TC=TEMPERATURE CELSIUS

 * =Non NWS site. Station does not report precipitation (e.g. rain,
    snow, etc.), thunder, or fog.

DCZ001-MDZ009-015-VAZ040>042-051-053>054-220000-
WASHINGTON METRO
  
CITY           SKY/WX    TMP DP  RH WIND       PRES   REMARKS
WASHINGTON NAT CLOUDY    81  68  64 NE7       29.78R                  
DULLES         PTSUNNY   77  68  73 NE6       29.79R                  
ANDREWS AFB    FAIR      78  69  73 NE5       29.78R                  
FT BELVOIR     FAIR      79  71  75 CALM      29.78R                  
QUANTICO       FAIR      81  70  69 NE8       29.79R                  
COLLEGE PARK*  FAIR      78  67  68 NE3       29.78R                  
LEESBURG*      FAIR      79  70  73 NE5       29.81R                  
MANASSAS*      CLOUDY    79  68  69 NE6       29.80R                  
GAITHERSBURG*  FAIR      77  68  73 CALM      29.81R                  

$$

MDZ006>007-011-014-220000-
BALTIMORE METRO
  
CITY           SKY/WX    TMP DP  RH WIND       PRES   REMARKS
BWI AIRPORT    PTSUNNY   79  68  69 E8        29.77S                  
MD SCIENCE CTR   N/A     82  65  56 MISG      29.78R                  
MARTIN STATE   PTSUNNY   79  72  78 CALM      29.80R                  
ANNAPOLIS      FAIR      81  69  67 VRB3      29.78R                  
FORT MEADE*    FAIR      77  68  73 E5        29.80S                  

$$

MDZ012-015-019>023-220000-
MARYLAND EASTERN SHORE
  
CITY           SKY/WX    TMP DP  RH WIND       PRES   REMARKS
OCEAN CITY     CLOUDY    73  68  84 NE10      29.81R                  
SALISBURY      CLOUDY    75  71  87 E8        29.79R                  
BAY BRIDGE AP* FAIR      79  70  73 NE3       29.78S                  
CAMBRIDGE*     CLOUDY    81  70  69 VRB5      29.78R                  
EASTON*        CLOUDY    81  68  65 E7        29.82R                  

$$

MDZ017>025-220000-
SOUTHERN MARYLAND
  
CITY           SKY/WX    TMP DP  RH WIND       PRES   REMARKS
PATUXENT RIVER PTSUNNY   82  69  64 N10       29.77R                  
ST INIGOES     PTSUNNY   78  71  79 VRB6      29.77R                  
LEONARDTOWN*   FAIR      77  68  73 CALM      29.80R                  

$$

MDZ003>005-220000-
NORTH CENTRAL MARYLAND
  
CITY           SKY/WX    TMP DP  RH WIND       PRES   REMARKS
FREDERICK*     PTSUNNY   79  64  61 CALM      29.82R                  
HAGERSTOWN APT FAIR      79  63  57 N5        29.81R                  
WESTMINSTER*   FAIR      79  64  61 CALM      29.82R                  

$$

MDZ501>502-220000-
WESTERN MARYLAND
  
CITY           SKY/WX    TMP DP  RH WIND       PRES   REMARKS
OAKLAND*       PTSUNNY   64  63  94 E6        29.90R                  
CUMBERLAND*    FAIR      75  68  78 E3        29.86R                  

$$

VAZ025>031-220000-
SHENANDOAH VALLEY
  
CITY           SKY/WX    TMP DP  RH WIND       PRES   REMARKS
WINCHESTER*    PTSUNNY   72  64  78 CALM      29.84R                  
FRONT ROYAL*   CLOUDY    73  70  88 NE3       29.81R                  
LURAY*         DRIZZLE   73  70  88 N6        29.81R                  
NEW MARKET*    CLOUDY    73  71  96 N3        29.80R                  
STAUNTON*      FAIR      72  70  92 CALM      29.84S                  
WAYNESBORO*    PTSUNNY   73  72  99 E3        29.83S                  

$$

WVZ021-048>050-054>055-220000-
EASTERN WEST VIRGINIA PANHANDLE
  
CITY           SKY/WX    TMP DP  RH WIND       PRES   REMARKS
MARTINSBURG    FAIR      78  65  63 N6        29.80S                  
PETERSBURG*    LGT RAIN  72  69  90 CALM      29.82S                  

$$

VAZ036>039-050-220000-
CENTRAL FOOTHILLS
  
CITY           SKY/WX    TMP DP  RH WIND       PRES   REMARKS
CHARLOTTESVILL LGT RAIN  75  73  93 N5        29.81S                  
CULPEPER*      CLOUDY    78  70  74 N3        29.80R                  
ORANGE*        HVY RAIN  73  72  94 SW5       29.80R                  
GORDONSVILLE*  FOG       73  73 100 CALM      29.81R VSB 1/4          
WARRENTON*     CLOUDY    80  67  66 NE5       29.79R                  

$$

VAZ055>057-220000-
NORTH AND CENTRAL PIEDMONT
  
CITY           SKY/WX    TMP DP  RH WIND       PRES   REMARKS
FREDERICKSBRG* PTSUNNY   81  72  73 NE5       29.77R                  
STAFFORD*      FAIR      81  72  74 N5        29.83R                  

$$

NCZ024-NYZ072-PAZ021-071-VAZ022-071-220000-
OTHER REGIONAL OBSERVATIONS
  
CITY           SKY/WX    TMP DP  RH WIND       PRES   REMARKS
NEW YORK CITY  FAIR      81  56  42 VRB3      29.79R                  
PHILADELPHIA   PTSUNNY   81  62  52 CALM      29.77R                  
PITTSBURGH     CLOUDY    75  63  66 E6        29.81S                  
ROANOKE        PTSUNNY   82  68  62 CALM      29.81S                  
RICHMOND       PTSUNNY   83  73  72 NE3       29.76R                  
RALEIGH        PTSUNNY   87  73  62 W3        29.76S HX  94           

$$

ANZ530>537-220000-
MARINE OBSERVATIONS
  
STATION/POSITION TIME  TEMP    WIND        PRES
                       AIR SEA DIR/SP/G
                 (UTC) (F)     (DEG/KT/KT) (MB)
THOMAS PT LIGHT  2300   77 77   40/ 10/ 10 1009.3R
BALT KEY BRIDGE  2248   78     130/  5/  7 1008.3R
COVE POINT       2248   78      30/ 12/ 13 1008.8R
LEWISETTA        2248   80 82   40/  6/ 10 1008.4R
SOLOMONS ISLAND  2248   78 79   10/  3/  6 1008.1R
PINEY POINT      2242           70/  4/  5   N/A

$$